Temperature
2 3 3 3 4 4 4 4 5 5 5 5 5 5 5 5 5 5 5 5 5 5 5 5 5 5 5 5 5 5 5 5 5 5 5 5 5 6 6 6 6 6 6
2 2 2 3 3 3 4 4 4 4 4 4 4 4 5 5 5 4 4 4 4 4 5 5 5 5 5 5 5 5 5 5 5 5 4 4 4 5 5 5 5 5 5
1 2 2 2 3 3 3 3 3 3 3 3 3 3 4 4 4 4 4 4 4 4 4 4 4 4 4 4 4 4 4 4 4 4 4 4 4 4 4 4 5 5 4
1 1 1 2 2 2 2 2 3 3 3 2 3 3 3 3 3 3 3 3 3 3 3 3 3 4 3 4 4 4 4 4 4 4 4 4 4 3 3 3 4 4 4
0 1 1 1 1 1 2 2 2 2 2 2 2 2 2 2 2 2 2 2 2 3 3 3 3 3 3 3 3 3 3 3 3 3 3 3 3 3 3 2 3 3 3
0 0 1 0 1 1 1 1 1 1 1 1 1 1 2 2 2 2 2 2 2 2 2 2 2 2 2 2 3 3 3 3 3 3 3 3 3 3 3 2 2 2 3
-0 -0 -0 -0 0 0 0 0 0 1 1 1 1 1 1 1 1 1 1 1 1 1 1 1 1 1 2 2 2 2 2 2 2 2 2 2 2 2 2 2 2 2 2
-0 -1 -1 -1 -0 -0 -0 -0 -0 0 0 0 0 0 0 -0 0 0 0 0 0 0 1 1 1 1 1 1 1 1 1 1 1 1 2 2 2 2 2 2 1 1 1
-1 -1 -1 -1 -1 -1 -1 -1 -1 -1 -1 -1 -1 -1 -1 -1 -1 -1 -1 -1 -0 -0 -0 -0 -0 -0 -0 0 0 0 1 1 1 1 1 1 1 1 1 1 1 1 0
-2 -2 -2 -2 -2 -2 -2 -2 -2 -2 -2 -2 -1 -1 -1 -2 -1 -1 -1 -1 -1 -1 -1 -1 -1 -1 -1 -1 -1 -0 -0 -0 0 0 0 0 0 0 1 1 1 0 0
-2 -2 -2 -3 -3 -3 -3 -3 -2 -3 -2 -2 -2 -2 -2 -2 -2 -2 -2 -2 -2 -2 -2 -1 -2 -2 -1 -1 -1 -1 -1 -1 -1 -0 -0 -0 -0 -0 -0 -0 -0 -0 -0
-3 -3 -3 -3 -3 -3 -3 -3 -3 -3 -3 -3 -3 -3 -3 -3 -3 -3 -3 -3 -3 -3 -3 -2 -2 -2 -2 -2 -2 -2 -2 -1 -1 -1 -1 -1 -1 -1 -1 -1 -1 -1 -1
-3 -3 -4 -4 -4 -4 -4 -4 -4 -4 -4 -4 -4 -4 -4 -4 -4 -4 -4 -4 -4 -4 -3 -3 -3 -3 -3 -3 -3 -2 -2 -2 -2 -2 -2 -2 -2 -2 -2 -2 -1 -1 -1
-4 -4 -4 -4 -5 -5 -5 -5 -5 -5 -5 -5 -5 -4 -4 -4 -5 -5 -5 -5 -5 -4 -4 -4 -4 -4 -4 -3 -3 -3 -3 -3 -3 -3 -3 -3 -3 -2 -2 -2 -2 -2 -2
-5 -5 -5 -5 -5 -5 -5 -5 -5 -5 -5 -5 -5 -5 -5 -5 -5 -5 -5 -5 -5 -5 -5 -5 -5 -4 -4 -4 -4 -4 -4 -4 -3 -3 -3 -3 -3 -3 -3 -3 -3 -3 -3
-5 -5 -6 -5 -6 -6 -6 -6 -6 -6 -6 -6 -6 -6 -6 -6 -6 -6 -6 -6 -6 -6 -6 -5 -5 -5 -5 -5 -5 -5 -5 -4 -4 -4 -4 -4 -4 -4 -4 -3 -3 -3 -3
-6 -6 -6 -6 -6 -6 -6 -7 -7 -7 -7 -7 -7 -7 -7 -7 -6 -6 -6 -6 -6 -6 -6 -6 -6 -6 -5 -5 -5 -5 -5 -5 -5 -5 -4 -4 -4 -4 -4 -4 -4 -4 -4
-6 -6 -7 -7 -7 -7 -7 -7 -7 -7 -7 -7 -7 -7 -7 -7 -7 -7 -7 -7 -7 -7 -7 -6 -6 -6 -6 -6 -6 -6 -6 -6 -5 -5 -5 -5 -5 -5 -5 -5 -4 -4 -4
-7 -7 -7 -7 -7 -7 -8 -8 -8 -8 -8 -8 -8 -8 -8 -8 -8 -8 -8 -8 -8 -7 -7 -7 -7 -7 -6 -6 -6 -6 -6 -6 -6 -6 -6 -5 -5 -5 -5 -5 -5 -5 -5
-8 -8 -8 -8 -8 -8 -8 -9 -9 -9 -9 -9 -9 -9 -9 -9 -9 -8 -8 -9 -8 -8 -8 -8 -8 -8 -7 -7 -7 -7 -7 -7 -6 -6 -6 -6 -6 -6 -6 -6 -6 -5 -5
-8 -8 -8 -9 -9 -9 -9 -9 -9 -9 -9 -9 -9 -9 -9 -9 -9 -9 -9 -9 -9 -9 -9 -9 -8 -8 -8 -8 -8 -7 -7 -7 -7 -7 -7 -6 -6 -6 -6 -6 -6 -6 -5
-9 -9 -9 -9 -10 -10 -10 -10 -10 -10 -10 -10 -10 -10 -10 -10 -10 -10 -10 -10 -10 -10 -10 -10 -9 -9 -9 -9 -8 -8 -8 -8 -8 -7 -7 -7 -7 -7 -7 -7 -6 -6 -6
-10 -10 -10 -10 -10 -11 -11 -11 -11 -11 -11 -11 -11 -11 -11 -11 -11 -11 -11 -11 -11 -11 -11 -11 -10 -10 -10 -9 -9 -9 -9 -8 -8 -8 -8 -8 -7 -7 -7 -7 -7 -7 -7
-10 -11 -11 -11 -11 -11 -12 -12 -12 -12 -12 -12 -12 -12 -11 -11 -11 -11 -11 -12 -12 -12 -11 -11 -11 -11 -10 -10 -10 -9 -9 -9 -9 -9 -8 -8 -8 -8 -8 -8 -8 -8 -7
-11 -12 -12 -12 -12 -12 -12 -12 -12 -12 -12 -12 -12 -12 -12 -12 -12 -12 -12 -12 -12 -12 -12 -12 -12 -11 -11 -11 -10 -10 -10 -10 -9 -9 -9 -9 -9 -9 -9 -9 -8 -8 -8
-12 -12 -12 -12 -13 -13 -13 -13 -13 -13 -13 -13 -13 -13 -13 -13 -13 -13 -13 -13 -13 -12 -12 -12 -12 -12 -12 -11 -11 -11 -11 -10 -10 -10 -10 -10 -10 -10 -10 -9 -9 -9 -9
Wind_Speed
2 1 1 1 1 2 2 2 3 3 3 2 1 1 1 1 2 3 3 2 2 3 3 3 3 3 3 2 3 3 4 2 2 3 2 3 3 3 3 4 4 4 5
1 1 0 1 0 1 1 1 2 2 2 1 1 0 0 0 1 2 3 2 1 2 2 3 3 2 2 3 3 3 2 1 1 2 2 1 1 2 2 2 2 3 4
4 2 1 1 1 0 0 1 1 1 2 1 2 2 2 1 1 2 2 3 2 1 1 2 3 2 3 4 4 4 3 2 1 1 2 3 3 1 1 1 1 1 2
3 3 2 2 2 1 0 0 1 1 1 2 2 2 1 1 1 1 1 3 2 2 1 1 2 3 2 3 4 3 3 4 3 1 0 1 2 2 1 1 1 1 0
4 3 3 3 1 1 0 0 1 1 1 2 2 2 1 0 0 0 1 1 2 2 1 0 1 2 2 2 3 3 3 3 3 3 2 1 1 1 2 2 2 1 2
3 2 1 1 0 0 0 0 0 0 1 1 1 2 2 1 1 0 1 1 1 1 2 1 1 2 2 2 3 3 4 3 3 3 3 3 3 3 3 3 3 3 2
3 2 1 1 1 1 1 0 1 0 0 1 1 1 2 2 2 2 2 1 2 2 2 2 1 1 2 2 2 3 3 3 4 4 3 3 3 3 3 3 3 2 2
3 2 2 2 2 2 1 1 1 1 1 1 1 1 1 1 1 1 2 2 2 2 2 2 2 2 2 2 2 2 3 2 3 4 4 3 3 4 4 4 3 2 2
3 2 2 1 2 2 2 1 1 1 1 1 1 1 1 1 1 2 2 2 2 2 2 2 2 2 2 2 2 3 3 3 3 3 4 4 3 3 4 4 5 5 4
1 1 1 1 1 1 1 1 1 1 1 1 1 1 1 1 2 2 2 2 2 3 2 3 3 3 3 2 3 3 3 4 4 3 4 4 3 3 4 5 5 5 5
2 2 1 1 0 1 1 1 1 1 1 1 1 1 1 1 1 2 2 2 3 3 3 3 3 3 3 3 3 4 4 4 4 4 5 5 4 4 4 4 5 5 5
2 1 1 0 0 1 1 1 2 1 1 1 1 1 1 1 1 2 3 3 3 3 3 3 3 4 4 4 4 5 5 5 5 5 5 6 5 5 5 5 6 6 6
1 1 0 1 1 1 1 1 2 2 2 1 1 1 1 2 2 2 3 3 3 3 3 3 4 4 5 5 5 5 5 6 6 6 6 6 6 7 5 6 6 6 6
1 1 1 1 2 1 1 2 2 2 2 1 1 2 2 2 3 3 3 3 3 3 4 4 5 5 5 6 6 6 6 6 6 6 7 7 7 8 7 7 7 6 6
2 2 2 2 2 2 2 2 2 3 2 1 2 2 3 2 3 3 3 3 3 4 4 4 5 5 5 5 6 6 6 6 6 6 7 7 9 10 9 7 6 7 6
3 3 2 2 2 2 2 2 3 3 3 2 2 3 3 3 3 3 3 3 4 4 4 4 5 5 5 8 10 8 6 7 7 7 7 8 9 11 12 12 12 11 9
3 2 2 2 2 2 2 2 3 3 3 2 2 3 3 3 4 4 4 4 4 4 4 4 5 5 7 10 11 11 7 6 7 7 7 7 7 9 8 10 12 12 14
2 2 2 2 2 1 1 2 2 2 3 3 3 3 3 4 4 4 4 4 4 4 4 5 5 5 7 10 11 11 7 6 7 7 7 7 7 7 7 7 8 8 10
2 2 1 1 1 1 1 1 2 2 3 3 3 4 4 4 4 4 5 5 4 4 4 5 5 5 7 10 11 10 5 6 7 7 8 8 8 11 11 8 7 8 8
1 1 1 1 1 1 1 1 2 2 3 4 5 4 4 4 4 4 5 5 4 5 5 5 5 5 6 10 11 10 5 6 6 6 7 11 11 12 13 8 8 9 8
1 1 1 1 1 1 1 1 2 3 4 5 5 4 4 4 4 4 4 4 5 5 5 6 5 5 7 10 11 10 5 5 6 6 6 7 12 13 14 11 8 10 8
2 2 1 1 2 1 1 2 3 4 4 4 5 4 4 4 4 4 4 4 4 4 5 5 6 5 6 9 10 11 10 8 6 6 6 7 12 13 13 11 10 11 9
2 1 1 1 2 2 1 2 4 4 4 4 5 5 5 4 4 3 4 4 4 4 4 5 5 6 6 7 12 12 12 11 7 6 9 11 12 11 9 11 12 8 5
1 1 1 1 2 2 3 3 4 3 3 4 5 5 4 4 4 3 3 3 4 4 5 5 5 6 6 6 6 6 7 9 8 6 8 10 10 8 7 7 6 4 4
2 1 1 2 3 3 3 4 3 3 3 4 4 5 4 4 4 4 4 5 4 5 5 5 5 6 6 8 11 8 6 5 5 5 3 3 3 4 3 3 4 3 3
1 1 2 2 3 3 4 4 3 3 3 4 4 4 4 4 4 4 5 8 8 10 11 10 9 8 10 13 14 14 13 11 9 5 3 3 4 4 4 4 3 3 4
Wind_Direction
230 185 127 80 107 102 94 97 87 73 73 75 59 56 77 51 51 41 45 59 93 111 111 112 111 123 135 142 132 131 112 109 125 100 71 36 46 64 57 60 66 63 68
239 205 124 88 72 160 137 126 112 96 90 95 137 235 196 138 61 29 31 31 70 117 116 123 134 138 144 148 146 146 133 141 152 134 125 68 359 9 36 45 62 59 66
222 230 230 236 241 276 247 174 147 121 99 87 90 60 59 63 42 20 8 1 2 43 137 138 141 151 165 177 178 174 163 175 215 179 152 161 205 247 324 359 40 58 66
223 219 220 233 242 255 282 215 150 122 108 113 121 130 147 161 261 282 314 342 4 21 48 128 146 166 175 188 190 190 194 172 188 210 208 163 160 165 220 300 321 310 241
215 216 215 221 237 242 209 240 158 133 125 138 149 149 160 179 232 24 351 346 353 1 3 138 148 164 190 204 199 200 200 192 192 197 191 162 146 164 176 224 251 280 260
216 219 215 175 135 145 141 199 150 121 147 147 156 154 168 155 130 50 310 313 320 339 348 304 212 191 197 211 211 204 207 208 204 208 205 190 183 187 185 211 221 239 254
204 208 198 204 203 217 229 209 182 278 296 195 186 177 179 181 183 204 228 266 291 300 298 320 282 249 223 217 213 205 217 218 210 210 222 225 215 194 190 200 221 244 267
207 211 216 219 227 233 238 233 222 233 274 257 244 209 184 195 214 224 235 242 254 267 280 285 288 278 262 230 222 226 223 219 228 229 222 231 231 211 199 193 196 226 256
217 220 228 231 239 240 243 230 228 228 253 260 280 255 210 215 232 242 248 249 270 282 287 291 292 288 267 245 236 237 227 221 228 233 232 235 247 230 215 203 199 199 225
227 229 237 263 283 293 301 293 230 242 256 253 242 263 251 242 242 241 257 265 279 282 275 278 280 284 270 252 239 255 239 228 232 233 230 238 246 245 226 211 210 212 217
225 233 246 263 278 345 337 332 311 297 294 274 269 271 278 269 258 257 262 271 281 278 267 265 266 271 266 252 233 247 243 235 240 239 231 234 234 237 235 223 216 215 214
213 217 219 237 328 322 326 317 315 304 302 296 294 285 288 285 271 277 278 280 280 278 273 269 262 259 260 251 239 243 246 236 239 242 240 240 236 234 239 228 224 222 218
211 207 228 247 264 287 308 308 311 304 315 311 303 304 302 300 289 287 287 282 280 281 277 268 260 260 258 255 246 239 246 241 239 238 240 243 235 239 240 236 229 228 227
224 233 254 268 278 289 296 311 318 313 309 311 299 301 301 297 296 296 296 288 282 275 271 271 266 264 261 259 252 245 251 247 244 241 239 239 234 235 234 237 231 224 224
243 239 244 256 275 293 306 312 316 320 316 305 305 307 311 314 314 312 307 299 295 288 279 276 274 270 261 256 255 244 248 245 246 246 244 244 242 239 236 238 234 224 221
257 253 244 251 265 278 293 308 313 318 324 315 316 323 327 328 325 318 312 310 309 304 298 289 281 275 270 266 263 254 247 245 243 247 249 249 249 247 248 249 245 234 224
263 257 247 247 257 263 275 286 305 319 327 324 328 332 328 325 322 320 320 311 307 309 303 294 286 279 280 278 271 263 253 245 245 245 247 252 250 250 247 251 252 249 243
270 280 266 270 283 287 315 326 331 329 329 327 330 333 328 321 319 317 313 306 304 302 297 293 286 282 282 284 278 271 261 249 245 246 244 245 249 247 247 245 248 248 245
289 299 300 280 307 321 328 346 338 334 337 330 324 323 319 316 318 315 308 307 308 306 299 293 292 291 292 291 285 279 263 257 251 250 249 247 244 251 250 245 245 252 256
9 354 358 30 6 328 338 355 328 333 325 317 313 312 311 309 307 305 305 308 305 302 304 301 299 295 294 293 289 281 264 260 258 256 252 252 253 252 251 244 239 243 249
18 19 36 32 327 324 353 339 331 315 310 315 316 314 312 308 303 305 308 311 312 314 311 305 303 298 295 297 293 288 273 258 257 258 255 254 259 259 256 253 243 245 244
16 23 32 3 352 2 3 330 317 313 319 322 318 314 314 312 315 317 314 313 313 312 310 308 307 301 297 301 299 295 291 282 260 259 259 260 264 264 262 259 256 255 247
350 4 30 358 348 349 341 309 311 321 325 325 318 311 312 310 312 309 309 313 314 311 308 308 308 308 309 305 305 299 297 294 284 269 268 268 266 266 265 261 257 251 230
344 358 21 343 324 329 325 307 315 324 319 314 312 310 311 312 313 307 302 302 302 305 306 307 305 306 308 309 308 304 297 291 289 282 276 275 274 272 269 268 262 241 223
346 348 319 302 303 313 311 312 318 319 311 307 308 311 310 305 303 304 295 295 283 291 299 295 295 301 302 307 312 309 300 291 279 280 269 271 267 259 259 258 254 239 232
328 326 315 305 305 308 306 309 311 304 300 308 311 311 312 310 310 308 310 306 307 307 307 309 309 300 303 308 311 311 309 305 299 291 276 266 261 258 254 251 251 243 237
Height
1493 1493 1494 1495 1496 1496 1497 1498 1498 1499 1500 1501 1503 1504 1505 1507 1508 1509 1510 1511 1512 1514 1515 1516 1517 1518 1520 1521 1522 1524 1525 1526 1528 1529 1530 1532 1533 1535 1536 1537 1539 1540 1541
1490 1490 1491 1492 1493 1494 1494 1495 1496 1497 1497 1498 1500 1501 1502 1503 1505 1506 1508 1509 1510 1511 1512 1513 1514 1515 1517 1518 1519 1521 1521 1523 1525 1526 1527 1529 1531 1531 1533 1534 1535 1537 1538
1486 1487 1488 1489 1490 1490 1491 1492 1493 1494 1495 1496 1497 1498 1499 1500 1502 1503 1504 1505 1506 1507 1508 1509 1511 1512 1513 1514 1515 1517 1518 1519 1522 1523 1525 1526 1526 1528 1529 1530 1532 1533 1535
1483 1484 1485 1486 1486 1487 1488 1489 1490 1491 1492 1493 1494 1495 1495 1495 1497 1499 1500 1502 1503 1503 1505 1506 1507 1508 1509 1511 1512 1513 1515 1516 1518 1520 1521 1522 1523 1525 1525 1527 1528 1530 1531
1480 1481 1481 1483 1483 1484 1485 1486 1487 1488 1489 1490 1491 1491 1492 1493 1494 1496 1497 1498 1499 1500 1501 1502 1503 1504 1505 1507 1508 1509 1511 1512 1514 1515 1517 1518 1519 1521 1521 1521 1523 1526 1527
1477 1478 1479 1480 1481 1482 1482 1483 1484 1485 1486 1487 1488 1488 1489 1490 1490 1491 1492 1494 1495 1496 1497 1498 1499 1500 1501 1502 1504 1505 1507 1508 1510 1511 1513 1514 1515 1516 1517 1518 1519 1520 1522
1475 1475 1475 1476 1477 1478 1479 1480 1481 1481 1482 1483 1484 1484 1485 1486 1486 1487 1488 1489 1490 1491 1492 1494 1495 1496 1497 1498 1500 1501 1502 1504 1505 1506 1508 1510 1511 1512 1513 1515 1515 1516 1517
1472 1473 1473 1474 1474 1475 1476 1477 1477 1478 1478 1479 1480 1481 1481 1482 1483 1484 1485 1485 1486 1487 1488 1489 1490 1491 1492 1494 1495 1496 1498 1499 1501 1502 1503 1505 1506 1508 1509 1510 1511 1511 1512
1471 1471 1471 1471 1472 1472 1473 1473 1474 1474 1475 1476 1476 1477 1478 1479 1479 1480 1481 1482 1482 1483 1484 1485 1486 1487 1488 1489 1490 1491 1493 1494 1496 1497 1498 1499 1501 1502 1504 1505 1507 1508 1507
1468 1469 1469 1470 1470 1470 1471 1471 1471 1471 1472 1472 1472 1473 1474 1475 1476 1476 1477 1477 1478 1479 1479 1480 1481 1482 1483 1484 1485 1487 1488 1489 1490 1492 1493 1494 1495 1497 1498 1499 1501 1502 1503
1466 1467 1467 1467 1467 1468 1468 1468 1468 1468 1469 1469 1469 1470 1471 1471 1472 1472 1473 1473 1474 1474 1475 1475 1476 1477 1478 1479 1480 1481 1482 1483 1485 1486 1487 1488 1490 1491 1492 1494 1494 1495 1497
1465 1465 1465 1465 1464 1464 1464 1465 1465 1465 1466 1466 1466 1466 1467 1467 1468 1468 1468 1469 1469 1470 1470 1471 1472 1472 1473 1474 1475 1476 1476 1478 1478 1479 1481 1482 1483 1485 1486 1487 1488 1489 1490
1462 1462 1462 1462 1462 1461 1462 1462 1462 1462 1463 1463 1463 1463 1463 1463 1464 1464 1464 1464 1465 1465 1466 1466 1466 1467 1467 1468 1469 1470 1471 1472 1473 1474 1474 1475 1477 1478 1479 1481 1482 1483 1484
1460 1460 1460 1460 1460 1459 1459 1459 1459 1459 1460 1460 1460 1459 1460 1460 1460 1460 1460 1460 1460 1460 1461 1461 1461 1462 1462 1463 1463 1464 1465 1466 1467 1467 1468 1469 1470 1471 1473 1474 1475 1476 1477
1458 1457 1457 1457 1457 1457 1456 1456 1456 1457 1457 1456 1456 1456 1456 1456 1456 1455 1455 1455 1455 1455 1455 1455 1456 1456 1457 1457 1458 1459 1459 1460 1460 1461 1462 1463 1464 1465 1466 1467 1468 1469 1470
1455 1455 1455 1454 1454 1454 1453 1453 1453 1453 1453 1453 1453 1453 1452 1452 1452 1451 1451 1450 1450 1450 1450 1450 1450 1450 1451 1451 1452 1453 1453 1454 1454 1454 1455 1456 1457 1458 1459 1460 1461 1463 1463
1453 1452 1452 1452 1452 1451 1451 1450 1450 1450 1450 1450 1450 1449 1449 1449 1448 1448 1447 1446 1445 1445 1445 1445 1445 1444 1444 1445 1446 1447 1448 1448 1448 1448 1449 1449 1450 1451 1452 1452 1454 1455 1456
1450 1450 1450 1449 1449 1449 1448 1448 1448 1448 1447 1447 1446 1446 1445 1445 1444 1444 1442 1442 1441 1440 1440 1439 1439 1438 1439 1439 1440 1441 1441 1441 1442 1442 1442 1443 1443 1444 1445 1445 1446 1447 1448
1449 1448 1448 1447 1447 1446 1446 1446 1445 1445 1444 1443 1443 1442 1442 1441 1440 1439 1438 1437 1436 1435 1435 1435 1434 1433 1433 1434 1434 1435 1435 1435 1435 1435 1436 1436 1437 1437 1438 1439 1438 1439 1440
1446 1446 1446 1445 1445 1444 1444 1443 1442 1441 1440 1440 1440 1439 1438 1437 1436 1435 1434 1433 1432 1431 1431 1430 1429 1428 1428 1428 1428 1428 1429 1428 1428 1429 1429 1430 1430 1431 1431 1432 1432 1432 1432
1444 1444 1444 1443 1443 1442 1441 1440 1439 1438 1438 1437 1436 1436 1435 1434 1433 1432 1431 1430 1429 1427 1426 1425 1425 1424 1423 1422 1422 1422 1423 1422 1422 1422 1422 1423 1423 1424 1425 1425 1425 1425 1426
1442 1442 1441 1441 1441 1440 1439 1437 1437 1436 1435 1434 1433 1432 1432 1431 1430 1429 1428 1426 1425 1423 1422 1421 1420 1420 1419 1418 1417 1417 1417 1417 1416 1416 1416 1416 1417 1417 1418 1419 1419 1419 1420
1441 1440 1440 1439 1439 1438 1437 1435 1434 1433 1432 1431 1430 1429 1428 1427 1426 1425 1424 1423 1421 1420 1419 1417 1416 1415 1414 1413 1413 1412 1411 1410 1410 1410 1410 1410 1410 1411 1411 1411 1412 1413 1413
1438 1438 1437 1437 1436 1436 1435 1433 1432 1431 1429 1428 1427 1426 1425 1423 1422 1422 1421 1419 1418 1417 1416 1414 1412 1411 1410 1409 1408 1406 1405 1405 1404 1404 1404 1404 1404 1404 1404 1405 1405 1405 1406
1437 1436 1435 1434 1434 1433 1432 1431 1429 1428 1427 1425 1424 1423 1421 1420 1419 1418 1417 1416 1415 1415 1413 1411 1410 1408 1405 1405 1404 1403 1401 1401 1400 1399 1398 1398 1398 1398 1397 1398 1398 1399 1399
1435 1434 1433 1432 1431 1430 1429 1428 1427 1426 1424 1422 1421 1420 1419 1417 1416 1414 1413 1412 1412 1411 1409 1408 1407 1404 1403 1401 1400 1399 1398 1396 1396 1395 1393 1392 1392 1392 1392 1392 1392 1393 1393